User: anonymous   Login
Location: Azul
(36.7830°S, 59.8500°W)
Time: 22:26:40
(UTC-03:00)
Language:

AO-109 - Orbit

View from above orbital plane
View from above orbital plane
View from above satellite
View from above satellite

Ground track
Ground track

The orbit data is extracted from the following two-line orbital elements,

1 47311U 21002C   22220.30876325  .00009955  00000-0  39147-3 0  9998
2 47311  60.6848 166.9403 0026050  16.5673 343.6260 15.25952516 86379
Epoch (UTC): 08 August 2022 07:24:37
Eccentricity: 0.0026050
inclination: 60.6848°
perigee height: 470 km
apogee height: 506 km
right ascension of ascending node: 166.9403°
argument of perigee: 16.5673°
revolutions per day: 15.25952516
mean anomaly at epoch: 343.6260°
orbit number at epoch: 8637

The dashed part of the orbit path shows where the satellite is in the earth's shadow,  

DLR